INFORMAÇÕES METEOROLÓGICAS
METAR FOR SBJU
ADDS - METARS form results

(0151 UTC 25 April 2019)
Data provider http://aviationweather.gov/metar/data/
 
METAR text: SBJU 250100Z 34002KT 9999 FEW020 25/20 Q1017
Conditions at: SBJU (JUAZEIRO D NORTE, BR) observed 0100 UTC 25 April 2019
Temperature: 25.0°C (77°F)
Dewpoint: 20.0°C (68°F) [RH = 74%]
Pressure (altimeter): 30.03 inches Hg (1017.0 mb)
Winds: from the NNW (340 degrees) at 2 MPH (2 knots; 1.0 m/s)
Visibility: 6 or more miles (10+ km)
Ceiling: at least 12,000 feet AGL
Clouds: few clouds at 2000 feet AGL
Weather: no significant weather observed at this time

 MAPA DO AEROPORTO

 INFORMAÇÕES DA PISTA
Pista 13 Tamanho da pista 5906 ft Largura da pista 148 ft
Elevação da pista 0 ft Ranhura da pista 0 ft Proa da pista 0
Pista 31 Tamanho da pista 5906 ft Largura da pista 148 ft
Elevação da pista 0 ft Ranhura da pista 0 ft Proa da pista 0

 FREQUÊNCIAS DO AEROPORTO
Tipo AFIS Nome JUAZEIRO R Frequência 131.75 MHZ

 AUXÍLIOS DE NAVEGAÇÃO PRÓXIMOS AO AEROPORTO
Tipo NDB Nome Juazeiro Frequência 205 KHZ





Powered by Virtual Airlines Manager [v2.6.2]